SCP
0 0 0 0 0 0 0 0 0 0 0 0 0 0 0 0 0 0 0 0 0 0 0 0 0 0 0 0 0 0 0 0 0 0 0 0 0 0 0 0 0 0 0
0 0 0 0 0 0 0 0 0 0 0 0 0 0 0 0 0 0 0 0 0 0 0 0 0 0 0 0 0 0 0 0 0 0 0 0 0 0 0 0 0 0 0
0 0 0 0 0 0 0 0 0 0 0 0 0 0 0 0 0 0 0 0 0 0 0 0 0 0 0 0 0 0 0 0 0 0 0 0 0 0 0 0 0 0 0
0 0 0 0 0 0 0 0 0 0 0 0 0 0 0 0 0 0 0 0 0 0 0 0 0 0 0 0 0 0 0 0 0 0 0 0 0 0 0 0 0 0 0
0 0 0 0 0 0 0 0 0 0 0 0 0 0 0 0 0 0 0 0 0 0 0 0 0 0 0 0 0 0 0 0 0 0 0 0 0 0 0 0 0 0 0
0 0 0 0 0 0 0 0 0 0 0 0 0 0 0 0 0 0 0 0 0 0 0 0 0 0 0 0 0 0 0 0 0 0 0 0 0 0 0 0 0 0 0
0 0 0 0 0 0 0 0 0 0 0 0 0 0 0 0 0 0 0 0 0 0 0 0 0 0 0 0 0 0 0 0 0 0 0 0 0 0 0 0 0 0 0
0 0 0 0 0 0 0 0 0 0 0 0 0 0 0 0 0 0 0 0 0 0 0 0 0 0 0 0 0 0 0 0 0 0 0 0 0 0 0 0 0 0 0
0 0 0 0 0 0 0 0 0 0 0 0 0 0 0 0 0 0 0 0 0 0 0 0 0 0 0 0 0 0 0 0 0 0 0 0 0 0 0 0 0 0 0
0 0 0 0 0 0 0 0 0 0 0 0 0 0 0 0 0 0 0 0 0 0 0 0 0 0 0 0 0 0 0 0 0 0 0 0 0 0 0 0 0 0 0
0 0 0 0 0 0 0 0 0 0 0 0 0 0 0 0 0 0 0 0 0 0 0 0 0 0 0 0 0 0 0 0 0 0 0 0 0 0 0 0 0 0 0
0 0 0 0 0 0 0 0 0 0 0 0 0 0 0 0 0 0 0 0 0 0 0 0 0 0 0 0 0 0 0 0 0 0 0 0 0 0 0 0 0 0 0
0 0 0 0 0 0 0 0 0 0 0 0 0 0 0 0 0 0 0 0 0 0 0 0 0 0 0 0 0 0 0 0 0 0 0 0 0 0 0 0 0 0 0
0 0 0 0 0 0 0 0 0 0 0 0 0 0 0 0 0 0 0 0 0 0 0 0 0 0 0 0 0 0 0 0 0 0 0 0 0 0 0 0 0 0 0
0 0 0 0 0 0 0 0 0 0 0 0 0 0 0 0 0 0 0 0 0 0 0 0 0 0 0 0 0 0 0 0 0 0 0 0 0 0 0 0 0 0 0
0 0 0 0 0 0 0 0 0 0 0 0 0 0 0 0 0 0 0 0 0 0 0 0 0 0 0 0 0 0 0 0 0 0 0 0 0 0 0 0 0 0 0
0 0 0 0 0 0 0 0 0 0 0 0 0 0 0 0 0 0 0 0 0 0 0 0 0 0 0 0 0 0 0 0 0 0 0 0 0 0 0 0 0 0 0
0 0 0 0 0 0 0 0 0 0 0 0 0 0 0 0 0 0 0 0 0 0 0 0 0 0 0 0 0 0 0 0 0 0 0 0 0 0 0 0 0 0 0
0 0 0 0 0 0 0 0 0 0 0 0 0 0 0 0 0 0 0 0 0 0 0 0 0 0 0 0 0 0 0 0 0 0 0 0 0 0 0 0 0 0 0
0 0 0 0 0 0 0 0 0 0 0 0 0 0 0 0 0 0 0 0 0 0 0 0 0 0 0 0 0 0 0 0 0 0 0 0 0 0 0 0 0 0 0
0 0 0 0 0 0 0 0 0 0 0 0 0 0 0 0 0 0 0 0 0 0 0 0 0 0 0 0 0 0 0 0 0 0 0 0 0 0 0 0 0 0 0
0 0 0 0 0 0 0 0 0 0 0 0 0 0 0 0 0 0 0 0 0 0 0 0 0 0 0 0 0 0 0 0 0 0 0 0 0 0 0 0 0 0 0
0 0 0 0 0 0 0 0 0 0 0 0 0 0 0 0 0 0 0 0 0 0 0 0 0 0 0 0 0 0 0 0 0 0 0 0 0 0 0 0 0 0 0
0 0 0 0 0 0 0 0 0 0 0 0 0 0 0 0 0 0 0 0 0 0 0 0 0 0 0 0 0 0 0 0 0 0 0 0 0 0 0 0 0 0 0
0 0 0 0 0 0 0 0 0 0 0 0 0 0 0 0 0 0 0 0 0 0 0 0 0 0 0 0 0 0 0 0 0 0 0 0 0 0 0 0 0 0 0
0 0 0 0 0 0 0 0 0 0 0 0 0 0 0 0 0 0 0 0 0 0 0 0 0 0 0 0 0 0 0 0 0 0 0 0 0 0 0 0 0 0 0
Wind_Speed
2 2 1 1 1 1 1 2 2 1 1 1 1 2 2 2 2 2 3 3 3 3 3 3 4 4 3 3 3 4 4 4 8 7 5 5 6 7 8 7 7 7 7
2 2 2 1 1 1 2 2 2 2 2 2 2 2 2 3 2 2 3 3 3 4 4 4 5 4 4 4 4 5 5 5 7 10 7 5 6 7 7 8 8 7 7
2 2 2 1 2 2 3 2 2 2 2 2 2 2 3 3 3 3 3 3 4 4 4 4 5 5 6 4 5 5 5 5 5 8 9 6 5 5 7 8 8 6 7
2 2 2 2 3 3 2 2 2 2 2 2 2 3 3 4 4 4 4 4 4 4 4 5 5 5 6 6 6 6 6 6 6 7 8 7 6 6 5 6 7 5 6
2 2 3 3 2 2 2 2 2 2 2 3 3 3 4 4 4 4 4 4 5 5 5 5 6 6 8 7 6 6 6 6 6 7 8 7 7 6 6 6 8 7 6
3 3 3 2 2 2 3 2 2 2 3 3 3 4 4 4 6 7 6 4 5 5 6 5 5 6 7 10 12 11 10 8 8 8 8 9 9 8 7 7 8 8 8
3 3 2 2 2 3 2 2 3 3 3 3 4 4 5 6 8 8 8 5 4 5 5 5 5 6 6 6 9 12 11 12 12 9 10 10 10 8 9 10 9 10 10
3 3 2 2 3 3 2 3 4 3 3 4 4 4 5 6 8 8 8 5 4 5 5 5 6 7 7 8 8 8 8 8 10 8 8 9 9 9 9 10 11 11 9
4 4 4 4 4 3 3 4 4 3 4 4 4 4 5 6 8 9 8 4 4 5 5 5 6 7 10 12 9 9 9 8 11 13 14 14 15 16 12 8 7 8 9
5 5 4 4 4 4 5 4 3 3 4 4 4 4 5 6 8 9 8 4 5 5 5 5 6 7 11 12 9 8 9 9 8 9 10 11 10 10 13 8 7 7 8
4 3 3 3 4 4 4 3 3 3 3 4 5 5 5 5 7 9 9 4 5 5 5 5 5 11 13 13 11 8 11 11 8 7 7 7 6 6 6 5 5 6 7
2 3 3 3 3 3 3 3 3 3 4 4 4 5 4 4 5 8 10 9 7 6 5 5 6 12 14 14 10 11 13 11 6 5 6 6 6 6 5 5 6 6 6
3 4 4 3 3 3 3 3 3 3 3 4 4 5 5 4 5 9 9 10 10 6 5 9 11 13 12 9 11 13 9 5 5 5 6 6 6 6 6 5 6 6 6
4 4 4 3 3 3 3 3 3 3 4 4 4 5 5 4 4 4 4 5 7 7 6 7 10 11 9 8 7 7 5 5 5 6 6 6 5 5 5 5 5 5 6
4 4 3 3 4 3 3 4 4 5 5 5 5 4 4 5 6 9 6 5 4 5 4 2 3 3 4 4 4 4 4 4 5 5 5 6 6 6 6 5 5 5 5
4 4 3 3 3 3 3 3 6 6 8 9 8 7 6 8 11 10 10 10 10 8 3 2 4 4 4 5 5 5 5 5 5 5 5 6 6 6 6 5 5 5 6
5 4 3 3 3 3 3 3 4 5 7 8 9 10 9 10 10 10 9 9 7 5 2 3 3 4 4 4 5 5 6 6 5 5 6 6 6 6 6 6 5 5 5
5 5 4 4 3 3 4 4 3 4 4 4 6 10 10 10 10 9 8 5 3 3 2 3 4 4 4 5 5 5 5 5 5 5 6 6 5 5 6 6 5 6 6
4 4 3 3 3 3 3 3 3 4 4 4 4 5 7 9 9 8 6 1 3 3 3 4 4 4 4 5 5 5 5 6 6 5 5 5 5 5 5 6 6 6 6
4 5 4 3 3 3 3 3 4 4 4 4 4 4 3 3 3 4 3 3 3 4 4 5 5 5 4 5 5 5 5 5 5 5 5 5 5 5 6 6 5 5 5
3 3 4 3 3 4 4 4 4 4 4 5 5 6 7 3 4 4 4 4 4 5 5 5 5 5 5 4 4 5 6 5 5 5 5 5 5 5 5 5 5 5 5
3 3 3 4 4 4 4 4 4 4 5 5 5 5 8 4 4 4 4 5 5 5 5 5 5 5 5 5 5 5 5 6 5 5 5 5 5 5 5 5 5 5 5
3 4 3 3 3 4 4 4 4 4 5 5 5 4 4 4 4 5 5 5 5 5 4 4 5 5 5 5 4 5 6 6 5 5 5 5 5 5 4 5 6 6 6
4 4 4 4 4 4 4 4 4 5 5 5 4 5 5 5 5 6 5 5 5 5 5 5 5 7 8 6 5 5 5 6 6 5 6 6 6 5 5 5 5 6 5
4 4 4 4 4 4 4 5 5 5 5 5 5 5 5 5 5 5 5 5 5 6 6 6 5 6 8 9 8 7 8 9 7 5 5 5 6 6 6 6 5 5 5
4 5 4 4 4 4 5 5 5 5 5 5 5 5 5 5 5 5 5 5 5 5 6 6 7 8 8 8 9 10 10 9 8 7 5 5 5 5 5 5 5 5 5
Wind_Direction
197 192 188 205 212 195 200 232 244 257 268 269 276 288 296 302 306 304 298 302 298 302 306 306 303 304 300 300 295 288 282 277 280 289 289 298 300 304 307 306 302 299 298
207 190 201 215 212 224 230 238 239 243 251 259 267 273 283 290 290 287 288 293 290 292 296 299 299 301 299 298 295 292 288 283 281 290 295 294 292 298 300 300 302 301 298
197 186 205 226 228 235 244 248 246 248 261 267 263 266 274 279 281 279 275 279 279 282 289 292 296 299 297 295 291 287 287 290 285 287 292 294 291 295 299 296 293 292 295
187 188 217 236 240 243 248 250 248 246 252 260 265 265 270 273 274 275 277 279 279 283 288 288 290 288 288 293 291 288 289 291 289 288 289 292 290 291 290 298 300 295 293
193 206 231 245 252 255 255 251 251 253 257 259 265 271 273 271 272 277 277 278 282 285 287 286 287 287 288 292 293 293 293 290 290 288 288 293 293 299 296 297 294 299 289
202 222 236 240 248 253 256 255 258 262 265 265 267 271 276 277 286 284 283 280 279 282 288 290 291 287 288 295 294 293 293 290 288 286 286 286 290 295 298 296 297 298 295
212 227 235 240 249 256 257 261 262 263 265 267 271 272 274 278 287 290 291 289 285 285 288 293 296 299 299 297 297 297 295 290 285 283 284 285 290 293 294 292 288 286 285
216 227 232 231 240 249 249 256 263 264 259 262 269 270 276 284 292 295 296 291 284 282 283 285 289 297 301 301 298 296 294 293 291 288 282 285 287 288 284 284 285 286 283
223 233 233 229 231 234 240 250 259 266 267 269 275 274 278 287 295 297 297 292 283 282 283 285 288 291 299 303 302 297 296 295 296 292 291 292 294 295 294 293 289 288 287
231 235 236 232 229 231 238 246 254 254 261 270 277 277 276 283 294 298 299 287 286 288 288 288 286 292 299 303 300 295 294 297 299 298 297 299 299 298 297 289 286 285 287
235 236 237 234 234 239 244 253 257 258 265 267 272 277 275 278 288 292 295 290 285 288 290 292 293 298 300 301 301 293 291 300 301 297 295 294 295 295 295 292 286 278 278
230 237 245 246 243 244 242 252 256 260 264 267 272 278 277 279 282 288 291 291 292 287 287 290 294 301 303 303 302 300 302 305 301 298 294 293 295 295 297 297 293 286 283
221 235 245 250 246 246 241 247 252 251 255 265 268 275 282 283 283 286 289 292 292 289 286 289 296 299 303 303 301 304 307 302 296 292 290 291 294 296 299 298 297 292 290
223 235 240 240 245 242 242 242 243 244 250 257 262 269 279 283 279 280 282 287 288 288 286 289 293 296 298 302 303 302 297 293 288 285 288 294 299 297 293 294 295 299 297
229 236 237 237 241 239 238 239 243 243 243 254 255 258 269 274 276 287 293 283 279 277 295 294 293 297 294 293 293 293 296 296 291 290 292 294 294 292 291 292 289 290 285
229 237 236 237 239 239 248 268 263 263 272 273 275 277 275 281 294 292 293 295 298 304 309 290 284 280 281 286 291 296 296 294 294 295 291 290 290 289 290 290 288 284 282
224 233 233 233 235 237 240 249 271 281 274 278 281 284 285 293 296 298 300 306 315 332 308 283 285 287 289 289 289 290 290 293 294 290 288 288 292 294 291 289 289 289 288
228 230 227 231 232 234 236 242 249 258 275 282 286 287 293 298 298 299 305 321 319 319 275 272 275 279 283 285 285 286 289 292 288 285 285 285 286 289 288 286 285 285 288
228 232 230 233 232 235 237 240 243 247 256 270 288 294 297 299 300 301 310 275 268 273 271 269 268 272 276 278 279 280 282 282 282 283 283 284 283 284 287 286 284 284 284
228 230 225 227 229 231 233 236 241 246 253 259 265 272 284 283 276 284 273 259 257 263 264 265 267 267 269 270 273 275 278 279 280 278 281 283 283 283 284 286 285 284 282
221 225 218 224 229 229 231 234 238 242 248 255 259 262 272 265 261 264 267 262 260 262 265 266 268 268 266 266 267 270 273 277 279 279 279 280 281 281 283 285 285 281 279
216 219 219 225 232 234 235 237 238 243 248 255 265 272 277 270 260 260 261 261 260 258 258 259 263 262 260 260 261 266 269 272 273 274 277 280 279 281 283 282 283 286 283
215 218 225 229 230 234 238 238 241 245 250 253 258 264 263 258 259 261 263 264 263 262 260 257 261 266 266 261 256 254 260 265 266 267 271 275 276 276 276 277 278 284 284
214 216 221 226 228 232 237 243 246 248 251 253 254 256 258 258 260 263 264 265 266 265 261 258 259 264 269 271 267 260 258 262 263 259 256 260 266 269 270 273 274 277 280
214 220 222 225 227 231 236 242 246 248 249 251 252 255 258 259 262 265 267 267 267 268 268 265 262 264 267 269 270 269 272 274 272 260 250 251 256 259 261 265 269 273 277
215 221 225 225 227 229 232 238 244 248 250 252 252 253 255 258 262 264 266 266 270 272 272 269 266 268 270 269 270 274 274 273 270 260 246 245 249 254 255 259 264 267 272